Regional Weather Roundup
Issued by NWS

Home | Current Version | Previous Version | Graphics & Text | Print | Product List | Glossary On
Versions: 1 2 3 4 5 6 7 8 9 10 11 12 13 14 15 16 17 18 19 20 21 22 23 24 25 26 27 28 29 30 31 32 33 34 35 36 37 38 39 40 41 42 43 44 45 46 47 48 49 50
000
ASUS43 KLMK 201602
RWRKY
KENTUCKY REGIONAL WEATHER ROUNDUP
NATIONAL WEATHER SERVICE LOUISVILLE KY
1200 PM EDT THU JUL 20 2017

NOTE "FAIR" INDICATES FEW OR NO CLOUDS BELOW 12,000 FEET
WITH NO SIGNIFICANT WEATHER AND/OR OBSTRUCTIONS TO VISIBILITY.

KYZ001>023-026-027-061>063-070>075-201700-
WESTERN AND SOUTH CENTRAL KENTUCKY

CITY           SKY/WX    TMP DP  RH WIND       PRES   REMARKS
PADUCAH        CLOUDY    91  74  57 W8        30.11F HX 100
HENDERSON      MOSUNNY   89  76  65 W8        30.12S HX 100
OWENSBORO      CLOUDY    90  76  63 W12       30.12S HX 101
HOPKINSVILLE   CLOUDY    88  73  60 W10       30.14S HX  96
BOWLING GREEN  SUNNY     90  74  59 NW9       30.14R HX  99
GLASGOW        NOT AVBL
$$

KYZ024-025-028>034-038-045-046-053-201700-
NORTH CENTRAL KENTUCKY

CITY           SKY/WX    TMP DP  RH WIND       PRES   REMARKS
LOUISVILLE/SDF CLOUDY    90  72  55 W8        30.10F HX  97
LOUISVILLE/LOU MOSUNNY   89  74  60 W6        30.11F HX  98
FORT KNOX      MOSUNNY   88  74  62 W9        30.11F HX  97
$$

KYZ035>037-039>044-047>052-055>060-089>105-201700-
NORTHEAST KENTUCKY

CITY           SKY/WX    TMP DP  RH WIND       PRES   REMARKS
LEXINGTON      MOSUNNY   85  69  58 W7        30.15F
COVINGTON      CLOUDY    84  75  74 S3        30.13F HX  92
FRANKFORT      PTSUNNY   86  71  60 W6        30.13F HX  91
$$

KYZ054-064>069-076>088-106>120-201700-
SOUTHEAST KENTUCKY

CITY           SKY/WX    TMP DP  RH WIND       PRES   REMARKS
JACKSON        MOSUNNY   84  70  62 VRB3      30.18S
LONDON         PTSUNNY   86  67  52 NW8       30.18R
SOMERSET       PTSUNNY   84  70  61 CALM      30.18S
MIDDLESBORO    MOSUNNY   83  70  64 CALM      30.18S
MONTICELLO     CLOUDY    86  75  69 W7        30.19R HX  95
$$





USA.gov is the U.S. government's official web portal to all federal, state and local government web resources and services.